Hourly Data Report for March 30, 2018

MIRAMICHI RCS
NEW BRUNSWICK

47°00'34.000" N
65°27'54.000" W
33.00 m
8100989
71744
ACQ

Download Data

Hourly Data (March 2018)
Hourly Data Report for March 30, 2018
TIME
LST
Temp Definition
°C
Dew Point Definition
°C
Rel Hum Definition
%
Precip. Amount Definition
mm

Wind Dir Definition
10's deg

Wind Spd Definition
km/h
Visibility Definition
km
Stn Press Definition
kPa
Hmdx Definition


Wind Chill Definition


Weather Definition


00:00 -1.6 -2.9 91 0.0 35 2   101.10   -2 LegendNANA
01:00 -1.6 -2.9 91 0.0 18 8   101.06   -5 LegendNANA
02:00 -1.8 -2.9 92 0.0 26 4   101.05   -3 LegendNANA
03:00 -1.7 -2.8 92 0.0 28 3   101.01   -3 LegendNANA
04:00 -0.5 -1.8 91 0.5 15 3   100.95   -1 LegendNANA
05:00 0.1 -1.1 91 0.6 6 6   100.80     LegendNANA
06:00 0.5 -0.4 94 0.5 11 2   100.78     LegendNANA
07:00 0.5 -0.1 96 2.6 10 7   100.58     LegendNANA
08:00 1.0 0.6 97 1.6 11 13   100.37     LegendNANA
09:00 1.9 1.2 95 2.5 13 10   100.27     LegendNANA
10:00 1.4 0.9 96 5.0 9 10   100.13     LegendNANA
11:00 1.8 1.3 97 5.5 3 8   100.06     LegendNANA
12:00 1.5 1.0 97 3.2 7 11   99.91     LegendNANA
13:00 2.3 1.7 96 0.9 4 6   99.82     LegendNANA
14:00 3.3 2.6 95 0.4 4 3   99.77     LegendNANA
15:00 3.7 2.6 93 0.0 1 3   99.73     LegendNANA
16:00 3.8 3.0 94 0.0 0 1   99.74     LegendNANA
17:00 4.6 3.9 95 0.2 27 6   99.78     LegendNANA
18:00 4.5 3.9 96 0.0 25 6   99.87     LegendNANA
19:00 4.1 3.7 97 0.0 28 5   99.90     LegendNANA
20:00 3.3 3.0 98 0.0 28 7   99.96     LegendNANA
21:00 2.6 2.2 98 0.0 25 3   99.96     LegendNANA
22:00 3.9 2.0 87 0.0 31 8   100.04     LegendNANA
23:00 3.5 1.5 87 0.0 32 7   100.09     LegendNANA

Notes on Data Quality.

Legend

  • E = Estimated
  • M = Missing
  • NA = Not Available*
  • [empty] = Indicates an unobserved value
Date modified: